STARLINK-33845, 63495

Orbit data source: Space-Track

STARLINK-33845, 63495 is a payload satellite owned by SpaceX/Seattle (US) in LEO that was launched on Mon, 07 Apr 2025 UTC via an FALCON 9 launch vehicle from the Air Force Western Test Range (AFWTR). Payload-class satellites include a variety of spacecraft equipped with specific instruments for various scientific and technological missions. These include communications satellites like Starlink; space stations such as the ISS; scientific satellites like the Hubble; Earth observation satellites from companies like Planet Labs, Umbra, and HawkEye 360; GPS; miniature CubeSats for education and research; and military/defense satellites.

Loading next visibility...
Identifier
63495, 2025-071C
Orbit
LEO
Last TLE update
18 hours ago
Origin
Manufacturer
SpaceX/Seattle
Mission
Operational Commercial Communications
Bus & Motor
STARLINK V2MO, Unknown motor
Mass
575 kg wet, ~530 kg dry
Launch date (UTC)
2025-04-07 (3 months ago)
Launch vehicle
FALCON 9
Launch site
Air Force Western Test Range (AFWTR)
Object type
Payload
Rocket body
Debris
Shape & HBR
Box + 1 Pan, 29 m
Radar Cross Section
41.120 m², Large (>1 m²)

Expand to show TLE details & history

TLE from 18 hours ago
0 STARLINK-33845
1 63495U 25071C   25191.36139312  .00011622  00000-0  30005-3 0  9991
2 63495  53.1561 185.8534 0001198  86.9311 273.1831 15.39624107 15640
Epoch: 2025-07-10T08:40Z
TLE epoch observation values (Epoch: 2025-07-10T08:40:24.365Z)
Latitude
-0.00002°
Longitude
127.22309°
Altitude
448.078 km
Speed
7.645 km/s
True Right ascension
12h 23m 24s
True Declination
0° 00' 00"
Sunlit
Object was in daylight at epoch
Visualization orbit readout
Latitude
2.43398°
Longitude
-58.10808°
Altitude
447.753 km
Speed
7.645 km/s
Apparent Right ascension
01h 12m 06s
Apparent Declination
-19° 03' 14"
Sunlit
Object is in daylight
Visualization observer readout
Local Sidereal Time
14:51:07
Azimuth
52.802° ENE
Elevation
-60.207°
Doppler factor
1
Orbital elements
Apogee altitude
448.296 km
Perigee altitude
446.66 km
Semi-major axis
6,825.615 km
Eccentricity
0.00012
Inclination
53.1561°
RAAN
185.8534°
Arg. of periapsis
86.9311°
True anomaly
Unknown
Mean anomaly
273.1831°
Eccentric anomaly
Unknown
Mean motion
3.84885 °/min
Orbital period
93.53 mins
BSTAR
0.00030005
Loading maneuver chart data...
Loading SW <> Apogee altitude chart data...
Loading historical data...
Loading historical data...
Loading historical data...
Loading historical data...
Loading historical data...
Loading historical data...
Loading historical data...

STARLINK-33845 Visibility forecast

Observer location: undefined°, undefined°

Span
Click to sort rows by Start time (UTC) header in descending order
Start Az.
Max El. time (UTC)
Max El. Az.
Max El.
End time (UTC)
End Az.
5 mins2025-07-11 03:36:32.170Z282.226° WNW2025-07-11 03:38:32.170Z321.986° NNW21.518°2025-07-11 03:41:32.170Z25.647° NE
4 mins2025-07-11 08:32:32.170Z343.777° N2025-07-11 08:33:32.170Z16.192° NNE31.939°2025-07-11 08:36:32.170Z100.831° ESE
4 mins2025-07-11 10:09:32.170Z264.653° W2025-07-11 10:10:32.170Z242.535° WSW20.017°2025-07-11 10:13:32.170Z180.121° SSW
4 mins2025-07-12 01:21:32.170Z177.705° S2025-07-12 01:22:32.170Z150.857° SSE27.105°2025-07-12 01:25:32.170Z73.285° E
|